• In United Kingdom
  • List of Countries
  • For 7 days
  • Water Temperature
  • Satellite Maps
  • Weather Map
  • Weather Widgets
  • user-avatar
    Login

    Hourly Weather Tbilisi

    Today, 18 August, Friday

    Time Temperature Precipitation Wind Pressure Humidity
    00:00 +19°C° 0.9 mm 2 mps 701 mmHg 75%
    01:00 +19°C° 0.6 mm 2 mps 701 mmHg 77%
    02:00 +18°C° 0.6 mm 2 mps 701 mmHg 79%
    03:00 +18°C° 0 mm 2 mps 700 mmHg 76%
    04:00 +18°C° 0 mm 2 mps 700 mmHg 77%
    05:00 +19°C° 0 mm 1 mps 700 mmHg 77%
    06:00 +19°C° 0 mm 1 mps 700 mmHg 77%
    07:00 +21°C° 0 mm 1 mps 701 mmHg 67%
    08:00 +24°C° 0 mm 1 mps 701 mmHg 58%
    09:00 +26°C° 0 mm 1 mps 701 mmHg 48%
    10:00 +27°C° 0 mm 2 mps 701 mmHg 44%
    11:00 +29°C° 0 mm 2 mps 701 mmHg 40%
    12:00 +30°C° 0 mm 2 mps 701 mmHg 35%
    13:00 +31°C° 0 mm 2 mps 701 mmHg 34%
    14:00 +32°C° 0 mm 2 mps 701 mmHg 33%
    15:00 +32°C° 0 mm 2 mps 701 mmHg 31%
    16:00 +32°C° 0.1 mm 2 mps 701 mmHg 33%
    17:00 +31°C° 0.1 mm 2 mps 701 mmHg 35%
    18:00 +30°C° 0.1 mm 2 mps 701 mmHg 38%
    19:00 +28°C° 0 mm 2 mps 701 mmHg 42%
    20:00 +26°C° 0 mm 2 mps 702 mmHg 47%
    21:00 +23°C° 0 mm 1 mps 702 mmHg 52%
    22:00 +23°C° 0 mm 1 mps 702 mmHg 53%
    23:00 +21°C° 0 mm 2 mps 702 mmHg 54%

    Tomorrow, 19 August, Saturday

    Time Temperature Precipitation Wind Pressure Humidity
    00:00 +20°C° 0 mm 2 mps 702 mmHg 55%
    01:00 +20°C° 0 mm 2 mps 702 mmHg 56%
    02:00 +19°C° 0 mm 2 mps 702 mmHg 56%
    03:00 +19°C° 0 mm 2 mps 702 mmHg 57%
    04:00 +19°C° 0 mm 2 mps 702 mmHg 57%
    05:00 +20°C° 0 mm 1 mps 702 mmHg 56%
    06:00 +20°C° 0 mm 1 mps 702 mmHg 56%
    07:00 +21°C° 0 mm 2 mps 703 mmHg 49%
    08:00 +25°C° 0 mm 2 mps 703 mmHg 43%
    09:00 +27°C° 0 mm 2 mps 703 mmHg 37%
    10:00 +28°C° 0 mm 2 mps 703 mmHg 34%
    11:00 +30°C° 0 mm 3 mps 703 mmHg 32%
    12:00 +32°C° 0 mm 4 mps 703 mmHg 29%
    13:00 +33°C° 0 mm 4 mps 703 mmHg 28%
    14:00 +34°C° 0 mm 4 mps 702 mmHg 27%
    15:00 +34°C° 0 mm 4 mps 702 mmHg 26%
    16:00 +33°C° 0 mm 4 mps 702 mmHg 27%
    17:00 +32°C° 0 mm 4 mps 702 mmHg 29%
    18:00 +30°C° 0 mm 3 mps 702 mmHg 30%
    19:00 +28°C° 0 mm 3 mps 703 mmHg 33%
    20:00 +26°C° 0 mm 3 mps 703 mmHg 36%
    21:00 +24°C° 0 mm 3 mps 703 mmHg 39%
    22:00 +22°C° 0 mm 3 mps 703 mmHg 40%
    23:00 +21°C° 0 mm 2 mps 703 mmHg 40%

    Day after tomorrow, 20 August, Sunday

    Time Temperature Precipitation Wind Pressure Humidity
    00:00 +21°C° 0 mm 2 mps 704 mmHg 41%
    01:00 +20°C° 0 mm 2 mps 703 mmHg 42%
    02:00 +19°C° 0 mm 2 mps 703 mmHg 43%
    03:00 +19°C° 0 mm 2 mps 703 mmHg 43%
    04:00 +19°C° 0 mm 2 mps 703 mmHg 43%
    05:00 +18°C° 0 mm 2 mps 703 mmHg 43%
    06:00 +18°C° 0 mm 2 mps 703 mmHg 43%
    07:00 +21°C° 0 mm 2 mps 703 mmHg 37%
    08:00 +25°C° 0 mm 2 mps 703 mmHg 30%
    09:00 +28°C° 0 mm 2 mps 703 mmHg 24%
    10:00 +29°C° 0 mm 2 mps 703 mmHg 22%
    11:00 +30°C° 0 mm 3 mps 703 mmHg 21%
    12:00 +33°C° 0 mm 4 mps 703 mmHg 19%
    13:00 +33°C° 0 mm 4 mps 702 mmHg 18%
    14:00 +34°C° 0 mm 4 mps 702 mmHg 18%
    15:00 +35°C° 0 mm 4 mps 702 mmHg 17%
    16:00 +33°C° 0 mm 4 mps 702 mmHg 19%
    17:00 +31°C° 0 mm 3 mps 702 mmHg 21%
    18:00 +30°C° 0 mm 3 mps 702 mmHg 23%
    19:00 +28°C° 0 mm 3 mps 702 mmHg 26%
    20:00 +25°C° 0 mm 3 mps 702 mmHg 28%
    21:00 +22°C° 0 mm 3 mps 703 mmHg 31%
    22:00 +21°C° 0 mm 2 mps 703 mmHg 32%
    23:00 +21°C° 0 mm 2 mps 702 mmHg 33%

    21 August, Monday

    Time Temperature Precipitation Wind Pressure Humidity
    00:00 +20°C° 0 mm 2 mps 702 mmHg 34%
    01:00 +19°C° 0 mm 2 mps 702 mmHg 36%
    02:00 +19°C° 0 mm 2 mps 702 mmHg 38%
    03:00 +19°C° 0 mm 2 mps 702 mmHg 40%
    04:00 +19°C° 0 mm 2 mps 702 mmHg 42%
    05:00 +19°C° 0 mm 2 mps 702 mmHg 43%
    06:00 +19°C° 0 mm 2 mps 702 mmHg 45%
    07:00 +21°C° 0 mm 2 mps 702 mmHg 39%
    08:00 +25°C° 0 mm 1 mps 702 mmHg 33%
    09:00 +28°C° 0 mm 1 mps 702 mmHg 28%
    10:00 +30°C° 0 mm 2 mps 702 mmHg 25%
    11:00 +31°C° 0 mm 2 mps 702 mmHg 23%
    12:00 +34°C° 0 mm 3 mps 701 mmHg 21%
    13:00 +34°C° 0 mm 3 mps 701 mmHg 20%
    14:00 +35°C° 0 mm 3 mps 701 mmHg 19%
    15:00 +36°C° 0 mm 4 mps 700 mmHg 18%
    16:00 +35°C° 0 mm 3 mps 700 mmHg 20%
    17:00 +33°C° 0 mm 3 mps 700 mmHg 22%
    18:00 +31°C° 0 mm 3 mps 700 mmHg 24%
    19:00 +29°C° 0 mm 2 mps 701 mmHg 26%
    20:00 +26°C° 0 mm 2 mps 701 mmHg 28%
    21:00 +24°C° 0 mm 2 mps 701 mmHg 30%
    22:00 +23°C° 0 mm 2 mps 701 mmHg 31%
    23:00 +21°C° 0 mm 2 mps 701 mmHg 31%

    22 August, Tuesday

    Time Temperature Precipitation Wind Pressure Humidity
    00:00 +21°C° 0 mm 2 mps 701 mmHg 32%
    01:00 +20°C° 0 mm 2 mps 701 mmHg 34%
    02:00 +20°C° 0 mm 2 mps 701 mmHg 36%
    03:00 +19°C° 0 mm 2 mps 700 mmHg 39%
    04:00 +19°C° 0 mm 2 mps 700 mmHg 40%
    05:00 +19°C° 0 mm 2 mps 700 mmHg 42%
    06:00 +19°C° 0 mm 2 mps 700 mmHg 43%
    07:00 +23°C° 0 mm 2 mps 700 mmHg 37%
    08:00 +26°C° 0 mm 2 mps 701 mmHg 32%
    09:00 +28°C° 0 mm 2 mps 701 mmHg 26%
    10:00 +30°C° 0 mm 2 mps 700 mmHg 24%
    11:00 +31°C° 0 mm 3 mps 700 mmHg 22%
    12:00 +34°C° 0 mm 4 mps 700 mmHg 20%
    13:00 +34°C° 0 mm 4 mps 700 mmHg 19%
    14:00 +35°C° 0 mm 4 mps 699 mmHg 19%
    15:00 +36°C° 0 mm 4 mps 699 mmHg 18%
    16:00 +35°C° 0 mm 3 mps 699 mmHg 20%
    17:00 +33°C° 0 mm 3 mps 699 mmHg 22%
    18:00 +31°C° 0 mm 2 mps 699 mmHg 24%
    19:00 +29°C° 0 mm 2 mps 700 mmHg 27%
    20:00 +26°C° 0 mm 2 mps 700 mmHg 30%
    21:00 +24°C° 0 mm 2 mps 700 mmHg 32%
    22:00 +23°C° 0 mm 2 mps 700 mmHg 33%
    23:00 +23°C° 0 mm 2 mps 700 mmHg 34%

    23 August, Wednesday

    Time Temperature Precipitation Wind Pressure Humidity
    00:00 +22°C° 0 mm 1 mps 700 mmHg 35%
    01:00 +22°C° 0 mm 1 mps 700 mmHg 36%
    02:00 +21°C° 0 mm 1 mps 700 mmHg 37%
    03:00 +21°C° 0 mm 1 mps 700 mmHg 38%
    04:00 +21°C° 0 mm 1 mps 700 mmHg 39%
    05:00 +21°C° 0 mm 1 mps 701 mmHg 40%
    06:00 +21°C° 0 mm 1 mps 701 mmHg 41%
    07:00 +24°C° 0 mm 1 mps 701 mmHg 35%
    08:00 +26°C° 0 mm 1 mps 701 mmHg 30%
    09:00 +29°C° 0 mm 1 mps 702 mmHg 25%
    10:00 +31°C° 0 mm 2 mps 702 mmHg 23%
    11:00 +32°C° 0 mm 2 mps 702 mmHg 20%
    12:00 +34°C° 0 mm 3 mps 702 mmHg 18%
    13:00 +35°C° 0 mm 3 mps 702 mmHg 17%
    14:00 +35°C° 0 mm 3 mps 701 mmHg 17%
    15:00 +36°C° 0 mm 3 mps 701 mmHg 16%
    16:00 +35°C° 0 mm 3 mps 702 mmHg 18%
    17:00 +32°C° 0 mm 2 mps 702 mmHg 21%
    18:00 +31°C° 0 mm 2 mps 702 mmHg 23%
    19:00 +28°C° 0 mm 2 mps 702 mmHg 29%
    20:00 +26°C° 0 mm 2 mps 703 mmHg 34%
    21:00 +24°C° 0 mm 2 mps 703 mmHg 40%
    22:00 +23°C° 0 mm 2 mps 703 mmHg 44%
    23:00 +21°C° 0 mm 2 mps 703 mmHg 48%
    Show more